Weather History for Wright-Patt AFB, OH

Change the Weather History Date:

Monday, December 3, 2012

  Actual Average Record
Temperature  
Mean Temperature 62 °F -  
Max Temperature 67 °F 44 °F 67 °F (2012)
Min Temperature 56 °F 29 °F 14 °F (2002)
Degree Days  
Heating Degree Days 4    
Growing Degree Days 12 (Base 50)    
Moisture  
Dew Point 56 °F    
Average Humidity 87    
Maximum Humidity 100    
Minimum Humidity 68    
Precipitation  
Precipitation 0.00 in - - ()
Sea Level Pressure  
Sea Level Pressure 30.12 in    
Wind  
Wind Speed 5 mph (SSE)    
Max Wind Speed 15 mph    
Max Gust Speed 21 mph    
Visibility 6 miles    
Events Rain    
Averages and records for this station are not official NWS values.
T = Trace of Precipitation, MM = Missing Value Source: NWS Daily Summary

Daily Weather History Graph

Daily Weather History Graph

Search for Another Location

Airport:

Trip Planner

Search our weather history database for the weather conditions in past years. The results will help you decide how hot, cold, wet, or windy it might be!

Date:

Astronomy

Dec. 03, 2012 Rise Set
Actual Time 7:40 AM EST 5:11 PM EST
Civil Twilight 7:10 AM EST 5:41 PM EST
Nautical Twilight 6:37 AM EST 6:15 PM EST
Astronomical Twilight 6:04 AM EST 6:47 PM EST
Moon 9:57 PM EST (12/3) 11:03 AM EST (12/3)
Length of Visible Light 10h 30m
Length of Day
9h 30m
Waning Gibbous, 78% of the Moon is Illuminated
Dec 3
Waning Gibbous
Dec 6
Last Quarter
Dec 13
New
Dec 20
First Quarter
Dec 28
Full

Hourly Weather History & Observations

Time (EST) Temp. Dew Point Humidity Pressure Visibility Wind Dir Wind Speed Gust Speed Precip Events Conditions
12:06 AM 57.2 °F 57.2 °F 100% 30.14 in 3.0 mi SSW 4.6 mph - N/A   Overcast
12:23 AM 57.2 °F 57.2 °F 100% 30.13 in 2.5 mi Calm Calm - N/A   Overcast
12:55 AM 56.8 °F 56.8 °F 100% 30.14 in 3.0 mi South 5.8 mph - N/A   Overcast
1:55 AM 57.2 °F 57.2 °F 100% 30.14 in 3.0 mi SE 3.5 mph - N/A   Overcast
2:10 AM 57.2 °F 57.2 °F 100% 30.14 in 1.5 mi SE 4.6 mph - N/A   Overcast
2:29 AM 57.2 °F 57.2 °F 100% 30.14 in 1.8 mi SSE 4.6 mph - N/A   Overcast
2:42 AM 57.2 °F 57.2 °F 100% 30.14 in 1.5 mi Calm Calm - N/A   Overcast
2:47 AM 57.2 °F 57.2 °F 100% 30.14 in 1.2 mi ESE 3.5 mph - N/A   Light Drizzle
2:52 AM 57.2 °F 57.2 °F 100% 30.14 in 1.0 mi Calm Calm - N/A   Light Drizzle
2:55 AM 57.2 °F 57.2 °F 100% 30.14 in 1.0 mi SE 4.6 mph - 0.00 in   Light Drizzle
3:06 AM 57.2 °F 57.2 °F 100% 30.14 in 1.0 mi SE 4.6 mph - N/A   Light Drizzle
3:21 AM 57.2 °F 57.2 °F 100% 30.14 in 1.0 mi SE 3.5 mph - N/A   Overcast
3:46 AM 57.2 °F 57.2 °F 100% 30.14 in 1.0 mi SSE 3.5 mph - N/A   Overcast
3:55 AM 57.4 °F 57.4 °F 100% 30.14 in 1.0 mi SSE 3.5 mph - 0.00 in   Overcast
4:05 AM 57.2 °F 57.2 °F 100% 30.13 in 1.0 mi SE 3.5 mph - N/A   Light Drizzle
4:13 AM 57.2 °F 57.2 °F 100% 30.14 in 1.8 mi SE 3.5 mph - N/A   Overcast
4:17 AM 57.2 °F 57.2 °F 100% 30.14 in 2.0 mi SSE 3.5 mph - N/A   Overcast
4:33 AM 57.2 °F 57.2 °F 100% 30.14 in 2.8 mi ESE 3.5 mph - N/A   Overcast
4:55 AM 57.4 °F 57.4 °F 100% 30.14 in 2.5 mi SE 3.5 mph - 0.00 in   Overcast
5:15 AM 57.2 °F 57.2 °F 100% 30.14 in 3.0 mi SE 3.5 mph - N/A   Overcast
5:55 AM 57.4 °F 53.8 °F 88% 30.14 in 4.0 mi SE 3.5 mph - N/A   Overcast
6:15 AM 57.2 °F - N/A% 30.14 in 5.0 mi SE 4.6 mph - N/A   Overcast
6:55 AM 57.6 °F 53.8 °F 87% 30.15 in 6.0 mi SSE 3.5 mph - N/A   Overcast
7:27 AM 57.2 °F 53.6 °F 88% 30.15 in 6.0 mi SE 3.5 mph - N/A   Overcast
7:55 AM 57.2 °F 55.4 °F 94% 30.15 in 6.0 mi SSE 4.6 mph - N/A   Overcast
8:55 AM 58.8 °F 56.7 °F 93% 30.16 in 10.0 mi South 5.8 mph - N/A   Overcast
9:55 AM 60.4 °F 54.1 °F 80% 30.15 in 10.0 mi South 6.9 mph - N/A   Mostly Cloudy
10:44 AM 60.8 °F 53.6 °F 77% 30.15 in 10.0 mi SSW 9.2 mph - N/A   Overcast
10:55 AM 61.2 °F 53.2 °F 75% 30.15 in 10.0 mi SSW 10.4 mph - N/A   Overcast
11:42 AM 62.6 °F 55.4 °F 77% 30.13 in 10.0 mi SSW 11.5 mph - N/A   Mostly Cloudy
11:55 AM 63.1 °F 54.5 °F 73% 30.12 in 10.0 mi South 15.0 mph 20.7 mph N/A   Mostly Cloudy
12:12 PM 62.6 °F 55.4 °F 77% 30.12 in 6.0 mi South 13.8 mph - N/A Rain Light Rain
12:24 PM 60.8 °F 55.4 °F 82% 30.12 in 7.0 mi SSW 8.1 mph - N/A   Overcast
12:55 PM 62.2 °F 55.8 °F 79% 30.11 in 10.0 mi South 9.2 mph - 0.00 in   Mostly Cloudy
1:45 PM 66.2 °F 55.4 °F 68% 30.09 in 10.0 mi South 13.8 mph - N/A   Mostly Cloudy
1:55 PM 65.7 °F 56.3 °F 72% 30.09 in 10.0 mi SSW 13.8 mph - N/A   Mostly Cloudy
2:22 PM 66.2 °F 57.2 °F 73% 30.07 in 10.0 mi South 11.5 mph 19.6 mph N/A   Mostly Cloudy
2:55 PM 67.6 °F 57.0 °F 69% 30.07 in 10.0 mi South 11.5 mph - N/A   Mostly Cloudy
3:55 PM 67.1 °F 56.3 °F 68% 30.06 in 10.0 mi South 13.8 mph - N/A   Scattered Clouds
4:55 PM 65.3 °F 55.9 °F 72% 30.08 in 10.0 mi SSE 8.1 mph - N/A   Mostly Cloudy
5:55 PM 63.7 °F 55.2 °F 74% 30.08 in 10.0 mi SSE 9.2 mph - N/A   Mostly Cloudy
6:55 PM 61.2 °F 54.7 °F 79% 30.08 in 10.0 mi SSE 8.1 mph - N/A   Scattered Clouds
7:55 PM 61.3 °F 53.8 °F 76% 30.08 in 10.0 mi SSE 10.4 mph - N/A   Scattered Clouds
8:55 PM 60.6 °F 53.1 °F 76% 30.07 in 10.0 mi SSE 10.4 mph - N/A   Mostly Cloudy
9:55 PM 61.3 °F 52.7 °F 73% 30.07 in 10.0 mi South 12.7 mph - N/A   Mostly Cloudy
10:55 PM 61.2 °F 51.3 °F 70% 30.07 in 10.0 mi South 10.4 mph - N/A   Mostly Cloudy
11:55 PM 61.2 °F 50.4 °F 68% 30.08 in 10.0 mi South 10.4 mph - N/A   Mostly Cloudy